[[[{"header":{"parameterUnit":"kt","parameterCategory":2,"dx":1,"dy":1,"la1":30.253999710083008,"la2":30.299108505249023,"lo1":-89.0895004272461,"lo2":-89.04439544677734,"nx":28,"ny":28,"refTime":"2022-10-17T21:00:00:Z","depth":"0","parameterNumber":2,"parameterNumberName":"U-component_of_CURRENTS"},"data":[-0.1666,-0.158,-0.1577,-0.1518,-0.1517,-0.1448,-0.1416,-0.1445,-0.1566,-0.1821,-0.2042,-0.2271,-0.2577,-0.2536,-0.2403,-0.2282,-0.2076,-0.1964,-0.191,-0.2132,-0.2138,-0.2144,-0.2126,-0.208,-0.208,-0.1644,-0.164,-0.1637,-0.1748,-0.1711,-0.1686,-0.1661,-0.1649,-0.1692,-0.1683,-0.1659,-0.1703,-0.1934,-0.2056,-0.2289,-0.2379,-0.2463,-0.2486,-0.2355,-0.2256,-0.2237,-0.2095,-0.2051,-0.2316,-0.2306,-0.2297,-0.2297,-0.2297,-0.2297,-0.2297,-0.2297,-0.1885,-0.1843,-0.1813,-0.1795,-0.1796,-0.1805,-0.1761,-0.1828,-0.1877,-0.1985,-0.2111,-0.2254,-0.2365,-0.247,-0.2473,-0.2446,-0.2342,-0.2353,-0.2281,-0.2182,-0.2108,-0.2373,-0.2385,-0.2386,-0.2386,-0.2386,-0.2386,0,-0.1975,-0.1972,-0.1939,-0.1928,-0.1904,-0.1906,-0.1905,-0.1924,-0.1992,-0.2062,-0.216,-0.2236,-0.237,-0.242,-0.247,-0.2464,-0.2308,-0.2406,-0.2392,-0.226,-0.2141,-0.2089,-0.2354,-0.2358,-0.2358,-0.2358,-0.2358,-0.2358,-0.206,-0.204,-0.203,-0.2012,-0.2001,-0.1995,-0.1985,-0.2033,-0.2041,-0.216,-0.2165,-0.2262,-0.2327,-0.2402,-0.2436,-0.2461,-0.2365,-0.2409,-0.2381,-0.2364,-0.2302,-0.22,-0.2149,-0.236,-0.2359,-0.2359,-0.2359,0,-0.2093,-0.2098,-0.207,-0.207,-0.207,-0.2052,-0.207,-0.2068,-0.2125,-0.2153,-0.2162,-0.2246,-0.2305,-0.2342,-0.2377,-0.2373,-0.2341,-0.2407,-0.2384,-0.2388,-0.2369,-0.2308,-0.2184,-0.2122,-0.2409,-0.2409,-0.2409,0,-0.2139,-0.2119,-0.212,-0.2107,-0.209,-0.2105,-0.2101,-0.2115,-0.2149,-0.2167,-0.2208,-0.2244,-0.227,-0.231,-0.2321,-0.2359,-0.2359,-0.2369,-0.2377,-0.2356,-0.2355,-0.2351,-0.2292,-0.2365,-0.2365,-0.2365,-0.2365,0,-0.2175,-0.2159,-0.2136,-0.2134,-0.2141,-0.2134,-0.2139,-0.2167,-0.2181,-0.2205,-0.223,-0.2243,-0.227,-0.2278,-0.2325,-0.2314,-0.2362,-0.2353,-0.2372,-0.2373,-0.2364,-0.2364,-0.2343,-0.2364,-0.2364,-0.2364,-0.2364,0,-0.2204,-0.2196,-0.2171,-0.2167,-0.2166,-0.2163,-0.2177,-0.2185,-0.2216,-0.2229,-0.2241,-0.2261,-0.228,-0.2288,-0.2318,-0.2311,-0.2325,-0.2343,-0.2344,-0.2361,-0.2371,-0.2354,-0.2355,-0.234,-0.2361,-0.2361,-0.2361,0,-0.2237,-0.2216,-0.2216,-0.2199,-0.2191,-0.221,-0.2218,-0.2233,-0.2248,-0.2259,-0.2279,-0.2288,-0.2297,-0.2302,-0.2311,-0.2336,-0.2341,-0.2334,-0.236,-0.2361,-0.2358,-0.2362,-0.234,-0.2354,-0.2359,-0.2359,-0.236,0,-0.2262,-0.2251,-0.2246,-0.2237,-0.2245,-0.2246,-0.2254,-0.2261,-0.2267,-0.2277,-0.2276,-0.2296,-0.2303,-0.2313,-0.2328,-0.2337,-0.234,-0.2344,-0.2345,-0.2339,-0.2352,-0.236,-0.2361,-0.2341,-0.2341,-0.2341,-0.2358,0,-0.2284,-0.227,-0.2266,-0.2259,-0.2262,-0.2258,-0.2273,-0.2281,-0.2285,-0.2288,-0.2298,-0.2317,-0.2326,-0.2334,-0.2343,-0.235,-0.2353,-0.2358,-0.2356,-0.236,-0.2369,-0.2369,-0.2366,-0.2366,-0.2367,-0.2367,0,0,-0.2306,-0.2285,-0.2292,-0.2285,-0.228,-0.2297,-0.2288,-0.2297,-0.2302,-0.2302,-0.2305,-0.2322,-0.2336,-0.2347,-0.235,-0.2361,-0.2364,-0.2352,-0.2363,-0.2363,-0.2362,-0.237,-0.2371,-0.2368,-0.2368,-0.2368,-0.2368,0,-0.231,-0.2305,-0.2293,-0.2295,-0.2295,-0.2298,-0.23,-0.23,-0.23,-0.2306,-0.2311,-0.2323,-0.2336,-0.2345,-0.2353,-0.2364,-0.2364,-0.2368,-0.2359,-0.2366,-0.2365,-0.2364,-0.2372,-0.2372,-0.2369,-0.2369,-0.2369,0,-0.2323,-0.2316,-0.2309,-0.2305,-0.2302,-0.2301,-0.2301,-0.2301,-0.2299,-0.2308,-0.2307,-0.2317,-0.2334,-0.2343,-0.235,-0.2352,-0.2365,-0.2364,-0.2363,-0.2361,-0.2368,-0.2367,-0.2366,-0.2372,-0.2372,-0.2372,0,0,-0.2328,-0.2316,-0.2316,-0.2306,-0.2307,-0.2303,-0.2301,-0.23,-0.2304,-0.2304,-0.2308,-0.2319,-0.2329,-0.2336,-0.2347,-0.2359,-0.2366,-0.2362,-0.2362,-0.2362,-0.2359,-0.2366,-0.2366,-0.2371,-0.2371,-0.2371,0,0,-0.233,-0.2321,-0.2317,-0.2306,-0.2307,-0.2303,-0.2299,-0.2297,-0.2301,-0.23,-0.2305,-0.2308,-0.232,-0.2332,-0.2322,-0.2342,-0.2346,-0.2349,-0.2325,-0.2325,-0.2325,-0.2316,-0.2318,0,0,0,0,0,-0.2331,-0.2323,-0.2319,-0.2317,-0.2303,-0.2304,-0.2303,-0.2296,-0.2291,-0.2292,-0.2299,-0.2298,-0.233,-0.2321,-0.2324,-0.2321,-0.2362,-0.2364,-0.2365,-0.2338,-0.2338,-0.2338,0,0,0,0,0,0,-0.233,-0.2327,-0.232,-0.2315,-0.2311,-0.2304,-0.2296,-0.2294,-0.2291,-0.229,-0.2296,-0.2298,-0.2301,-0.232,-0.2322,-0.2319,-0.2317,-0.2363,-0.2364,-0.2365,-0.2338,-0.2338,-0.2338,0,0,0,0,0,-0.2329,-0.2327,-0.2305,-0.2315,-0.2312,-0.2303,-0.2296,-0.2295,-0.2291,-0.2297,-0.2298,-0.2286,-0.2301,-0.2304,-0.2321,-0.2317,-0.2316,-0.2317,-0.2364,-0.2365,-0.2366,-0.2338,0,0,0,0,0,0,-0.2329,-0.2325,-0.2304,-0.2303,-0.2315,-0.2304,-0.2301,-0.2295,-0.2298,-0.2299,-0.2288,-0.2288,-0.2301,-0.2303,-0.2306,-0.2317,-0.2314,-0.2315,-0.2316,-0.2365,-0.2365,-0.2366,0,0,0,0,0,0,-0.2326,-0.2324,-0.2304,-0.2304,-0.2303,-0.2304,-0.2302,-0.2312,-0.2299,-0.229,-0.2289,-0.2288,-0.2306,-0.2303,-0.2305,-0.2321,-0.2313,-0.2314,-0.2315,-0.2315,-0.2365,-0.2366,0,0,0,0,0,0,-0.2325,-0.2324,-0.2304,-0.2303,-0.2302,-0.2292,-0.2314,-0.2305,-0.2284,-0.229,-0.2284,-0.2284,-0.2307,-0.2308,-0.2304,-0.2319,-0.232,-0.2313,-0.2314,-0.2314,-0.2314,0,0,0,0,0,0,0,-0.2325,-0.2338,-0.231,-0.2303,-0.2302,-0.2296,-0.2295,-0.2295,-0.2284,-0.2284,-0.2284,-0.2284,-0.2308,-0.2309,-0.231,-0.2318,0,0,-0.2313,-0.2313,0,0,0,0,0,0,0,0,-0.2338,-0.2338,-0.231,-0.231,-0.2309,-0.2296,-0.2295,-0.2295,-0.2284,-0.2284,-0.2284,-0.2284,-0.2308,-0.2309,-0.231,0,0,0,0,0,0,0,0,0,0,0,0,0,0,0,-0.231,-0.231,0,-0.2296,-0.2295,-0.2295,-0.2284,-0.2284,-0.2284,-0.2284,-0.2308,-0.2309,-0.2309,0,0,0,0,0,0,0,0,0,0,0,0,0,0,0,0,0,0,0,0,0,0,0,0,0,0,0,0,0,0,0,0,0,0,0,0,0,0,0,0,0,0,0,0,0,0,0,0,0,0,0,0,0,0,0,0,0,0,0,0,0,0,0,0,0,0,0,0,0]}],[{"header":{"parameterUnit":"kt","parameterCategory":2,"dx":1,"dy":1,"la1":30.253999710083008,"la2":30.299108505249023,"lo1":-89.0895004272461,"lo2":-89.04439544677734,"nx":28,"ny":28,"refTime":"2022-10-17T21:00:00:Z","depth":"0","parameterNumber":3,"parameterNumberName":"V-component_of_CURRENTS"},"data":[-0.1165,-0.1309,-0.1397,-0.1633,-0.1702,-0.1837,-0.1906,-0.2139,-0.233,-0.2751,-0.2969,-0.3069,-0.3038,-0.2797,-0.2756,-0.2639,-0.2674,-0.2479,-0.2467,-0.2436,-0.2405,-0.2376,-0.2427,-0.2669,-0.2669,-0.2803,-0.2805,-0.2806,-0.1111,-0.119,-0.1293,-0.1425,-0.1553,-0.154,-0.1663,-0.1791,-0.1984,-0.2189,-0.2303,-0.2447,-0.2457,-0.2365,-0.2283,-0.2197,-0.2163,-0.2105,-0.2173,-0.2234,-0.2009,-0.2051,-0.2218,-0.2218,-0.2218,-0.2217,-0.2217,-0.2217,-0.103,-0.1084,-0.115,-0.1258,-0.1329,-0.1442,-0.1512,-0.1626,-0.1744,-0.1907,-0.1833,-0.1986,-0.1915,-0.1776,-0.1721,-0.1712,-0.1568,-0.1737,-0.1731,-0.1663,-0.1773,-0.1444,-0.1505,-0.1503,-0.1502,-0.15,-0.1499,0,-0.0993,-0.1,-0.1032,-0.1124,-0.1184,-0.1252,-0.1321,-0.1372,-0.1414,-0.1478,-0.157,-0.1602,-0.1533,-0.1586,-0.1447,-0.1407,-0.1443,-0.1352,-0.1479,-0.1773,-0.172,-0.1804,-0.1487,-0.1572,-0.1571,-0.1569,-0.1568,-0.1568,-0.0963,-0.0967,-0.0991,-0.1033,-0.104,-0.1083,-0.1145,-0.1157,-0.1225,-0.1268,-0.1332,-0.1326,-0.1385,-0.1334,-0.1292,-0.1251,-0.1292,-0.1318,-0.1359,-0.1466,-0.1472,-0.1419,-0.1495,-0.1549,-0.1552,-0.1554,-0.1555,0,-0.0951,-0.0937,-0.0955,-0.0965,-0.0973,-0.1006,-0.1063,-0.1124,-0.1125,-0.1213,-0.1226,-0.1241,-0.1253,-0.122,-0.1239,-0.1213,-0.1281,-0.12,-0.1332,-0.1344,-0.1437,-0.1441,-0.1473,-0.1568,-0.1187,-0.1186,-0.1186,0,-0.0923,-0.093,-0.0919,-0.0925,-0.0964,-0.0963,-0.102,-0.1037,-0.1083,-0.1153,-0.113,-0.119,-0.1188,-0.1201,-0.1194,-0.1194,-0.1223,-0.1203,-0.1201,-0.1337,-0.1343,-0.147,-0.1482,-0.1262,-0.1262,-0.1262,-0.1262,0,-0.0906,-0.0904,-0.0911,-0.0913,-0.093,-0.0948,-0.0967,-0.1005,-0.1044,-0.1071,-0.1103,-0.1137,-0.1169,-0.1185,-0.1184,-0.1189,-0.1217,-0.1231,-0.1199,-0.1195,-0.1336,-0.1342,-0.1525,-0.1262,-0.1262,-0.1262,-0.1262,0,-0.0885,-0.0882,-0.0888,-0.0908,-0.0912,-0.0924,-0.0968,-0.0987,-0.1027,-0.1042,-0.1077,-0.1098,-0.1138,-0.113,-0.1174,-0.1163,-0.1168,-0.1179,-0.118,-0.1148,-0.1132,-0.1274,-0.1327,-0.1461,-0.1168,-0.1167,-0.1167,0,-0.0877,-0.0875,-0.0871,-0.0884,-0.0886,-0.0893,-0.0919,-0.0938,-0.0956,-0.0993,-0.1021,-0.1064,-0.1061,-0.1088,-0.1109,-0.1137,-0.1149,-0.1132,-0.1162,-0.1162,-0.1124,-0.1144,-0.13,-0.1313,-0.116,-0.1161,-0.1161,0,-0.0872,-0.0859,-0.086,-0.0866,-0.0864,-0.0867,-0.0885,-0.0903,-0.0928,-0.0946,-0.0985,-0.1033,-0.1048,-0.1071,-0.1092,-0.1112,-0.1135,-0.1109,-0.111,-0.1104,-0.1177,-0.1138,-0.1139,-0.1151,-0.1152,-0.1153,-0.1156,0,-0.0867,-0.0862,-0.0858,-0.0858,-0.0859,-0.0854,-0.0857,-0.0871,-0.0881,-0.0894,-0.0943,-0.0982,-0.103,-0.1036,-0.1051,-0.1091,-0.1081,-0.1089,-0.1084,-0.1102,-0.1098,-0.1102,-0.105,-0.105,-0.105,-0.105,0,0,-0.087,-0.0861,-0.085,-0.0847,-0.0847,-0.0837,-0.0839,-0.0847,-0.0865,-0.0883,-0.0883,-0.0963,-0.0985,-0.104,-0.1049,-0.1057,-0.1062,-0.105,-0.1089,-0.1093,-0.1097,-0.1095,-0.1099,-0.105,-0.105,-0.105,-0.105,0,-0.0867,-0.0857,-0.0853,-0.0848,-0.0835,-0.0838,-0.0831,-0.0832,-0.0843,-0.0871,-0.0901,-0.0936,-0.0976,-0.101,-0.103,-0.1054,-0.1053,-0.1052,-0.1059,-0.1087,-0.1091,-0.1095,-0.1094,-0.1097,-0.105,-0.105,-0.105,0,-0.087,-0.0859,-0.0855,-0.0839,-0.0837,-0.0837,-0.0832,-0.0825,-0.0835,-0.0863,-0.0899,-0.0927,-0.0961,-0.0998,-0.1012,-0.1007,-0.1044,-0.1031,-0.1032,-0.1036,-0.1065,-0.107,-0.1074,-0.102,-0.102,-0.102,0,0,-0.0871,-0.0864,-0.0847,-0.0837,-0.0831,-0.083,-0.0828,-0.083,-0.0847,-0.086,-0.0887,-0.0919,-0.0952,-0.0968,-0.0998,-0.1022,-0.103,-0.1027,-0.1028,-0.1029,-0.1034,-0.1064,-0.1068,-0.1019,-0.1019,-0.1019,0,0,-0.0872,-0.0854,-0.0852,-0.0838,-0.0831,-0.083,-0.0831,-0.0831,-0.0862,-0.0869,-0.0898,-0.0908,-0.0943,-0.0954,-0.0945,-0.0989,-0.0983,-0.0986,-0.0983,-0.0985,-0.0986,-0.0987,-0.0951,0,0,0,0,0,-0.086,-0.0852,-0.085,-0.0845,-0.0836,-0.0827,-0.0828,-0.0836,-0.084,-0.0844,-0.0882,-0.0883,-0.0961,-0.0954,-0.0961,-0.0966,-0.1013,-0.1014,-0.1015,-0.1018,-0.102,-0.1021,0,0,0,0,0,0,-0.0858,-0.0852,-0.085,-0.0845,-0.0842,-0.0828,-0.084,-0.0843,-0.084,-0.0843,-0.0878,-0.0885,-0.0909,-0.0951,-0.0957,-0.0962,-0.0949,-0.1013,-0.1014,-0.1015,-0.1018,-0.102,-0.1021,0,0,0,0,0,-0.0856,-0.0852,-0.0832,-0.0846,-0.0844,-0.0848,-0.0841,-0.0843,-0.085,-0.0874,-0.0881,-0.0853,-0.0908,-0.0915,-0.0955,-0.0959,-0.0945,-0.0947,-0.1014,-0.1014,-0.1015,-0.1019,0,0,0,0,0,0,-0.0855,-0.087,-0.0832,-0.0832,-0.0846,-0.085,-0.085,-0.0844,-0.0883,-0.0887,-0.0851,-0.0853,-0.0907,-0.0913,-0.0918,-0.0957,-0.0942,-0.0944,-0.0945,-0.1014,-0.1015,-0.1015,0,0,0,0,0,0,-0.0871,-0.087,-0.0832,-0.0832,-0.0833,-0.0852,-0.0852,-0.0873,-0.0884,-0.086,-0.0861,-0.0851,-0.0902,-0.0911,-0.0916,-0.0948,-0.0939,-0.0941,-0.0943,-0.0944,-0.1015,-0.1015,0,0,0,0,0,0,-0.0871,-0.087,-0.0833,-0.0833,-0.0834,-0.0841,-0.0873,-0.0869,-0.0864,-0.086,-0.0864,-0.0865,-0.09,-0.0905,-0.0914,-0.0944,-0.0947,-0.0939,-0.0941,-0.0942,-0.0942,0,0,0,0,0,0,0,-0.0871,-0.0875,-0.0823,-0.0834,-0.0835,-0.083,-0.0831,-0.0832,-0.0864,-0.0864,-0.0864,-0.0865,-0.0927,-0.093,-0.0932,-0.0941,0,0,-0.0939,-0.094,0,0,0,0,0,0,0,0,-0.0876,-0.0875,-0.0823,-0.0822,-0.0822,-0.083,-0.0831,-0.0831,-0.0864,-0.0864,-0.0864,-0.0864,-0.0928,-0.093,-0.0932,0,0,0,0,0,0,0,0,0,0,0,0,0,0,0,-0.0823,-0.0822,0,-0.083,-0.0831,-0.0831,-0.0864,-0.0864,-0.0864,-0.0864,-0.0929,-0.093,-0.0932,0,0,0,0,0,0,0,0,0,0,0,0,0,0,0,0,0,0,0,0,0,0,0,0,0,0,0,0,0,0,0,0,0,0,0,0,0,0,0,0,0,0,0,0,0,0,0,0,0,0,0,0,0,0,0,0,0,0,0,0,0,0,0,0,0,0,0,0,0]}]],[[{"header":{"parameterUnit":"kt","parameterCategory":2,"dx":1,"dy":1,"la1":30.253999710083008,"la2":30.299108505249023,"lo1":-89.0895004272461,"lo2":-89.04439544677734,"nx":28,"ny":28,"refTime":"2022-10-17T21:00:00:Z","depth":"2","parameterNumber":2,"parameterNumberName":"U-component_of_CURRENTS"},"data":[-0.1666,-0.1582,-0.158,-0.1517,-0.1515,-0.1446,-0.1414,-0.1401,-0.1442,-0.151,-0.1557,-0.1728,-0.182,-0.1587,-0.1569,-0.1463,-0.152,-0.1409,-0.19,-0.1807,-0.1825,-0.1896,-0.1842,0,0,0,0,0,-0.1747,-0.1711,-0.1687,-0.1664,-0.1648,-0.1694,-0.1685,-0.1643,-0.1661,-0.1797,-0.1876,-0.181,-0.1824,-0.1865,-0.1771,-0.1786,-0.1727,-0.1708,-0.1607,-0.1633,-0.1655,-0.1598,-0.1408,-0.1406,-0.1404,-0.1402,0,0,-0.1882,-0.1841,-0.1813,-0.1796,-0.1797,-0.1807,-0.1763,-0.1815,-0.1858,-0.1927,-0.2061,-0.2117,-0.2165,-0.2153,-0.2101,-0.2052,-0.2198,-0.2089,-0.2093,-0.21,-0.207,-0.2052,-0.2004,-0.2006,-0.2008,-0.201,-0.2011,0,-0.1971,-0.1969,-0.1937,-0.1927,-0.1905,-0.1907,-0.1906,-0.1924,-0.1993,-0.2058,-0.2156,-0.2228,-0.2327,-0.2286,-0.2321,-0.2304,-0.2247,-0.222,-0.244,-0.2065,-0.2043,-0.2048,-0.2058,-0.2,-0.2003,-0.2004,-0.2005,-0.2006,-0.2056,-0.2037,-0.2028,-0.201,-0.2,-0.1995,-0.1985,-0.2034,-0.2043,-0.2162,-0.2167,-0.2265,-0.2326,-0.2403,-0.24,-0.2415,-0.2448,-0.2267,-0.2221,-0.2404,-0.241,-0.2409,-0.2408,-0.203,-0.2027,-0.2025,-0.2023,0,-0.2089,-0.2095,-0.2068,-0.2068,-0.2068,-0.2052,-0.2071,-0.2069,-0.2127,-0.2156,-0.2166,-0.2252,-0.2312,-0.2351,-0.239,-0.2387,-0.241,-0.2421,-0.2252,-0.224,-0.2407,-0.2406,-0.242,-0.242,-0.242,-0.2421,-0.2421,0,-0.2136,-0.2116,-0.2118,-0.2105,-0.2089,-0.2105,-0.2102,-0.2117,-0.2152,-0.2172,-0.2215,-0.2252,-0.2282,-0.2323,-0.2336,-0.2374,-0.2376,-0.2385,-0.2393,-0.2246,-0.2234,-0.239,-0.2391,-0.2385,-0.2385,-0.2385,-0.2385,0,-0.2172,-0.2157,-0.2135,-0.2132,-0.2141,-0.2134,-0.214,-0.217,-0.2185,-0.2212,-0.2237,-0.2254,-0.2282,-0.2292,-0.234,-0.233,-0.238,-0.2372,-0.2388,-0.2388,-0.2257,-0.2247,-0.2385,-0.2385,-0.2385,-0.2385,-0.2385,0,-0.2202,-0.2194,-0.217,-0.2167,-0.2166,-0.2163,-0.2178,-0.2188,-0.2221,-0.2235,-0.225,-0.2272,-0.2294,-0.2302,-0.2335,-0.2327,-0.2342,-0.2361,-0.2362,-0.2375,-0.2385,-0.2236,-0.2206,-0.2379,-0.2378,-0.2378,-0.2378,0,-0.2234,-0.2214,-0.2214,-0.2198,-0.219,-0.221,-0.2219,-0.2235,-0.2251,-0.2264,-0.2287,-0.2298,-0.2309,-0.2315,-0.2326,-0.2353,-0.2358,-0.2351,-0.2378,-0.2379,-0.2371,-0.2376,-0.2209,-0.2211,-0.2376,-0.2377,-0.2377,0,-0.2259,-0.2249,-0.2244,-0.2236,-0.2244,-0.2245,-0.2255,-0.2263,-0.227,-0.2282,-0.2282,-0.2306,-0.2314,-0.2326,-0.2343,-0.2354,-0.2356,-0.236,-0.2361,-0.2354,-0.2369,-0.2374,-0.2375,-0.2358,-0.2358,-0.2358,-0.2375,0,-0.2281,-0.2268,-0.2264,-0.2258,-0.2261,-0.2258,-0.2274,-0.2282,-0.2287,-0.2291,-0.2304,-0.2325,-0.2336,-0.2346,-0.2356,-0.2365,-0.2367,-0.2374,-0.2371,-0.2375,-0.2384,-0.2385,-0.2381,-0.2381,-0.2381,-0.2382,0,0,-0.2303,-0.2283,-0.229,-0.2283,-0.2279,-0.2296,-0.2288,-0.2297,-0.2304,-0.2305,-0.2308,-0.233,-0.2345,-0.236,-0.2363,-0.2375,-0.2378,-0.2366,-0.2379,-0.2378,-0.2378,-0.2386,-0.2387,-0.2382,-0.2382,-0.2382,-0.2382,0,-0.2306,-0.2303,-0.2291,-0.2293,-0.2294,-0.2298,-0.2299,-0.23,-0.2301,-0.2309,-0.2315,-0.2329,-0.2345,-0.2356,-0.2365,-0.2378,-0.2378,-0.2383,-0.2373,-0.2381,-0.238,-0.238,-0.2387,-0.2388,-0.2383,-0.2383,-0.2383,0,-0.2319,-0.2313,-0.2307,-0.2303,-0.2301,-0.23,-0.2301,-0.2301,-0.23,-0.2311,-0.2311,-0.2323,-0.2342,-0.2354,-0.2362,-0.2363,-0.2379,-0.2377,-0.2377,-0.2374,-0.2382,-0.2382,-0.2381,-0.2386,-0.2385,-0.2385,0,0,-0.2324,-0.2313,-0.2314,-0.2304,-0.2305,-0.2302,-0.2301,-0.23,-0.2305,-0.2306,-0.2311,-0.2324,-0.2337,-0.2345,-0.2358,-0.2372,-0.2378,-0.2376,-0.2376,-0.2375,-0.2373,-0.2381,-0.2381,-0.2384,-0.2384,-0.2384,0,0,-0.2327,-0.2318,-0.2315,-0.2304,-0.2306,-0.2302,-0.2299,-0.2297,-0.2303,-0.2303,-0.2309,-0.2313,-0.2327,-0.234,-0.2329,-0.2353,-0.2357,-0.2359,-0.2335,-0.2335,-0.2335,-0.2326,-0.2326,0,0,0,0,0,-0.2328,-0.232,-0.2317,-0.2314,-0.2302,-0.2304,-0.2303,-0.2297,-0.2292,-0.2293,-0.2301,-0.2301,-0.2338,-0.2328,-0.2332,-0.2329,-0.2375,-0.2377,-0.2378,-0.2351,-0.2351,-0.2351,0,0,0,0,0,0,-0.2327,-0.2324,-0.2317,-0.2313,-0.231,-0.2304,-0.2296,-0.2295,-0.2292,-0.2291,-0.2299,-0.2301,-0.2306,-0.2327,-0.233,-0.2327,-0.2325,-0.2376,-0.2377,-0.2378,-0.2351,-0.2351,-0.2351,0,0,0,0,0,-0.2326,-0.2324,-0.2303,-0.2313,-0.231,-0.2303,-0.2296,-0.2295,-0.2291,-0.23,-0.2301,-0.2287,-0.2306,-0.2309,-0.2329,-0.2326,-0.2323,-0.2324,-0.2376,-0.2378,-0.2379,-0.2351,0,0,0,0,0,0,-0.2326,-0.2322,-0.2303,-0.2302,-0.2313,-0.2303,-0.2301,-0.2295,-0.2301,-0.2301,-0.2289,-0.2289,-0.2306,-0.2308,-0.2311,-0.2324,-0.2321,-0.2322,-0.2323,-0.2377,-0.2378,-0.2379,0,0,0,0,0,0,-0.2324,-0.2322,-0.2302,-0.2302,-0.2302,-0.2304,-0.2302,-0.2314,-0.2302,-0.229,-0.229,-0.2289,-0.2311,-0.2308,-0.231,-0.2328,-0.232,-0.2321,-0.2322,-0.2322,-0.2378,-0.2379,0,0,0,0,0,0,-0.2323,-0.2321,-0.2303,-0.2302,-0.2301,-0.2292,-0.2316,-0.2308,-0.2285,-0.2291,-0.2285,-0.2285,-0.2311,-0.2312,-0.2309,-0.2327,-0.2328,-0.232,-0.2321,-0.2321,-0.2321,0,0,0,0,0,0,0,-0.2322,-0.2334,-0.2308,-0.2301,-0.2301,-0.2296,-0.2296,-0.2295,-0.2285,-0.2285,-0.2285,-0.2285,-0.2313,-0.2315,-0.2316,-0.2325,0,0,-0.232,-0.232,0,0,0,0,0,0,0,0,-0.2335,-0.2334,-0.2308,-0.2308,-0.2308,-0.2296,-0.2296,-0.2295,-0.2285,-0.2285,-0.2285,-0.2285,-0.2314,-0.2315,-0.2316,0,0,0,0,0,0,0,0,0,0,0,0,0,0,0,-0.2308,-0.2308,0,-0.2296,-0.2296,-0.2295,-0.2285,-0.2285,-0.2285,-0.2285,-0.2314,-0.2315,-0.2316,0,0,0,0,0,0,0,0,0,0,0,0,0,0,0,0,0,0,0,0,0,0,0,0,0,0,0,0,0,0,0,0,0,0,0,0,0,0,0,0,0,0,0,0,0,0,0,0,0,0,0,0,0,0,0,0,0,0,0,0,0,0,0,0,0,0,0,0,0]}],[{"header":{"parameterUnit":"kt","parameterCategory":2,"dx":1,"dy":1,"la1":30.253999710083008,"la2":30.299108505249023,"lo1":-89.0895004272461,"lo2":-89.04439544677734,"nx":28,"ny":28,"refTime":"2022-10-17T21:00:00:Z","depth":"2","parameterNumber":3,"parameterNumberName":"V-component_of_CURRENTS"},"data":[-0.1002,-0.1118,-0.1205,-0.139,-0.1508,-0.1512,-0.1574,-0.1529,-0.1447,-0.1345,-0.1268,-0.1161,-0.1039,-0.0774,-0.061,-0.0475,-0.0529,-0.0435,-0.0703,-0.0705,-0.0726,-0.0661,-0.0616,0,0,0,0,0,-0.0964,-0.109,-0.1192,-0.1323,-0.1377,-0.144,-0.156,-0.1512,-0.1544,-0.1513,-0.1496,-0.1266,-0.1082,-0.0916,-0.0605,-0.052,-0.0481,-0.0529,-0.0501,-0.0522,-0.0541,-0.0498,-0.0335,-0.0335,-0.0335,-0.0334,0,0,-0.0934,-0.0987,-0.1052,-0.1159,-0.123,-0.1341,-0.141,-0.1422,-0.1507,-0.1499,-0.1557,-0.1476,-0.131,-0.1,-0.088,-0.0712,-0.079,-0.0776,-0.0783,-0.0793,-0.0763,-0.0721,-0.067,-0.0672,-0.0673,-0.0674,-0.0676,0,-0.0898,-0.0906,-0.0936,-0.1028,-0.1088,-0.1154,-0.1222,-0.1272,-0.1315,-0.1357,-0.1448,-0.1467,-0.1324,-0.1183,-0.1011,-0.096,-0.0927,-0.0884,-0.1071,-0.0839,-0.0795,-0.0789,-0.0796,-0.0766,-0.0768,-0.077,-0.0771,-0.0772,-0.0869,-0.0874,-0.0896,-0.0938,-0.0945,-0.0988,-0.1049,-0.1061,-0.1129,-0.1173,-0.1236,-0.123,-0.1274,-0.1223,-0.1092,-0.1027,-0.1104,-0.0932,-0.0934,-0.1075,-0.107,-0.1067,-0.1065,-0.0796,-0.0793,-0.0791,-0.0789,0,-0.0857,-0.0843,-0.0862,-0.0871,-0.088,-0.0912,-0.0969,-0.103,-0.1032,-0.1119,-0.1132,-0.1147,-0.1158,-0.1126,-0.1145,-0.1119,-0.1116,-0.1105,-0.0957,-0.0938,-0.1073,-0.1069,-0.1095,-0.1094,-0.1093,-0.1092,-0.1091,0,-0.0828,-0.0836,-0.0825,-0.0831,-0.087,-0.087,-0.0926,-0.0944,-0.099,-0.1058,-0.1036,-0.1096,-0.1094,-0.1106,-0.11,-0.11,-0.1129,-0.1108,-0.1105,-0.0997,-0.0983,-0.1131,-0.1126,-0.1167,-0.1167,-0.1167,-0.1167,0,-0.081,-0.0809,-0.0817,-0.0819,-0.0835,-0.0854,-0.0873,-0.0911,-0.0949,-0.0976,-0.1007,-0.1043,-0.1075,-0.1091,-0.109,-0.1095,-0.1123,-0.1136,-0.1103,-0.1099,-0.1001,-0.0986,-0.1167,-0.1167,-0.1167,-0.1167,-0.1167,0,-0.0789,-0.0786,-0.0792,-0.0812,-0.0816,-0.0829,-0.0873,-0.0892,-0.0931,-0.0945,-0.0982,-0.1002,-0.1043,-0.1034,-0.108,-0.1068,-0.1073,-0.1083,-0.1084,-0.105,-0.1033,-0.0921,-0.0916,-0.1072,-0.1071,-0.1071,-0.107,0,-0.078,-0.0778,-0.0774,-0.0788,-0.079,-0.0797,-0.0822,-0.0841,-0.0858,-0.0894,-0.0923,-0.0966,-0.0963,-0.0991,-0.1012,-0.104,-0.1053,-0.1035,-0.1063,-0.1063,-0.1025,-0.1047,-0.0923,-0.0914,-0.1063,-0.1064,-0.1065,0,-0.0774,-0.076,-0.0762,-0.0767,-0.0765,-0.0768,-0.0787,-0.0804,-0.0829,-0.0847,-0.0885,-0.0935,-0.0949,-0.0972,-0.0993,-0.1014,-0.1038,-0.1009,-0.101,-0.1005,-0.108,-0.104,-0.1041,-0.1053,-0.1054,-0.1055,-0.1059,0,-0.0767,-0.0763,-0.0759,-0.0758,-0.0759,-0.0755,-0.0756,-0.0771,-0.078,-0.0792,-0.0841,-0.0881,-0.0928,-0.0934,-0.0949,-0.099,-0.098,-0.0986,-0.098,-0.1,-0.0996,-0.1001,-0.0946,-0.0946,-0.0946,-0.0946,0,0,-0.0769,-0.076,-0.0748,-0.0745,-0.0745,-0.0734,-0.0736,-0.0743,-0.0761,-0.0779,-0.0779,-0.0858,-0.088,-0.0936,-0.0945,-0.0953,-0.0958,-0.0945,-0.0986,-0.099,-0.0995,-0.0993,-0.0997,-0.0945,-0.0945,-0.0945,-0.0945,0,-0.0765,-0.0755,-0.0751,-0.0746,-0.0732,-0.0734,-0.0728,-0.0728,-0.0738,-0.0766,-0.0795,-0.0831,-0.0869,-0.0903,-0.0922,-0.0948,-0.0946,-0.0946,-0.0956,-0.0984,-0.0988,-0.0992,-0.0991,-0.0995,-0.0945,-0.0945,-0.0945,0,-0.0767,-0.0755,-0.0751,-0.0734,-0.0731,-0.0732,-0.0725,-0.0718,-0.0728,-0.0755,-0.079,-0.0818,-0.0851,-0.0888,-0.0902,-0.0897,-0.0935,-0.0922,-0.0923,-0.0927,-0.0956,-0.0961,-0.0966,-0.0908,-0.0907,-0.0907,0,0,-0.0766,-0.0759,-0.0741,-0.0732,-0.0726,-0.0723,-0.0721,-0.0723,-0.0739,-0.0752,-0.0778,-0.0809,-0.0842,-0.0858,-0.0887,-0.0912,-0.0918,-0.0917,-0.0919,-0.092,-0.0925,-0.0954,-0.0959,-0.0907,-0.0907,-0.0907,0,0,-0.0767,-0.0748,-0.0745,-0.0732,-0.0724,-0.0721,-0.0722,-0.0722,-0.0752,-0.076,-0.0787,-0.0797,-0.0833,-0.0842,-0.0834,-0.0878,-0.087,-0.0873,-0.0873,-0.0875,-0.0877,-0.0877,-0.0837,0,0,0,0,0,-0.0753,-0.0746,-0.0744,-0.0739,-0.0728,-0.0718,-0.0719,-0.0726,-0.073,-0.0734,-0.0771,-0.0772,-0.0849,-0.0842,-0.0848,-0.0855,-0.0899,-0.0901,-0.0902,-0.0908,-0.091,-0.0912,0,0,0,0,0,0,-0.0751,-0.0746,-0.0744,-0.0736,-0.0733,-0.0719,-0.073,-0.0733,-0.073,-0.0733,-0.0767,-0.0773,-0.0795,-0.0839,-0.0844,-0.085,-0.0835,-0.09,-0.0901,-0.0902,-0.0909,-0.0911,-0.0912,0,0,0,0,0,-0.0749,-0.0745,-0.0723,-0.0738,-0.0735,-0.0738,-0.073,-0.0733,-0.074,-0.0762,-0.0769,-0.0742,-0.0795,-0.0801,-0.0842,-0.0848,-0.0831,-0.0833,-0.0901,-0.0902,-0.0902,-0.091,0,0,0,0,0,0,-0.0748,-0.0762,-0.0723,-0.0723,-0.0739,-0.074,-0.074,-0.0733,-0.0771,-0.0775,-0.074,-0.0741,-0.0794,-0.08,-0.0805,-0.0846,-0.0828,-0.083,-0.0832,-0.0901,-0.0902,-0.0903,0,0,0,0,0,0,-0.0764,-0.0762,-0.0723,-0.0724,-0.0725,-0.0742,-0.0741,-0.0762,-0.0772,-0.0749,-0.0749,-0.074,-0.079,-0.0798,-0.0802,-0.0833,-0.0826,-0.0828,-0.0829,-0.083,-0.0902,-0.0902,0,0,0,0,0,0,-0.0763,-0.0762,-0.0725,-0.0725,-0.0726,-0.073,-0.0762,-0.0757,-0.0751,-0.0748,-0.0752,-0.0752,-0.0788,-0.0793,-0.0801,-0.083,-0.0832,-0.0826,-0.0827,-0.0828,-0.0829,0,0,0,0,0,0,0,-0.0763,-0.0768,-0.0716,-0.0726,-0.0726,-0.0719,-0.072,-0.0721,-0.0751,-0.0752,-0.0752,-0.0752,-0.0814,-0.0817,-0.0819,-0.0827,0,0,-0.0826,-0.0827,0,0,0,0,0,0,0,0,-0.077,-0.0769,-0.0716,-0.0715,-0.0714,-0.0719,-0.072,-0.0721,-0.0751,-0.0752,-0.0752,-0.0752,-0.0815,-0.0817,-0.0819,0,0,0,0,0,0,0,0,0,0,0,0,0,0,0,-0.0715,-0.0715,0,-0.0719,-0.072,-0.072,-0.0751,-0.0752,-0.0752,-0.0752,-0.0815,-0.0817,-0.0818,0,0,0,0,0,0,0,0,0,0,0,0,0,0,0,0,0,0,0,0,0,0,0,0,0,0,0,0,0,0,0,0,0,0,0,0,0,0,0,0,0,0,0,0,0,0,0,0,0,0,0,0,0,0,0,0,0,0,0,0,0,0,0,0,0,0,0,0,0]}]],[[{"header":{"parameterUnit":"kt","parameterCategory":2,"dx":1,"dy":1,"la1":30.253999710083008,"la2":30.299108505249023,"lo1":-89.0895004272461,"lo2":-89.04439544677734,"nx":28,"ny":28,"refTime":"2022-10-17T21:00:00:Z","depth":"4","parameterNumber":2,"parameterNumberName":"U-component_of_CURRENTS"},"data":[-0.1151,-0.1085,-0.1034,-0.0792,-0.0717,-0.0667,-0.0714,-0.0874,-0.091,-0.1171,-0.124,-0.1492,-0.1602,-0.1665,-0.1717,-0.1747,-0.1816,-0.2007,-0.2003,-0.2201,-0.222,-0.2238,-0.2224,0,0,0,0,0,-0.1249,-0.1162,-0.1109,-0.103,-0.1008,-0.1003,-0.108,-0.1179,-0.1378,-0.1381,-0.1494,-0.1577,-0.167,-0.1774,-0.1745,-0.1901,-0.2036,-0.1858,-0.2014,-0.2213,-0.2234,-0.2214,0,0,0,0,0,0,-0.1362,-0.1339,-0.1319,-0.1276,-0.1263,-0.1189,-0.1269,-0.1298,-0.1353,-0.158,-0.1618,-0.1773,-0.1945,-0.1972,-0.2018,-0.2025,-0.2077,-0.2057,-0.2086,-0.2108,-0.2064,-0.1897,-0.1748,0,0,0,0,0,-0.1441,-0.1487,-0.1496,-0.1462,-0.1466,-0.1471,-0.1497,-0.1505,-0.1619,-0.1784,-0.1844,-0.1902,-0.1976,-0.2088,-0.2076,-0.2167,-0.2363,-0.2292,-0.2306,-0.2421,-0.2318,-0.2321,-0.2328,-0.2316,-0.2319,-0.2321,-0.2322,0,-0.1526,-0.1534,-0.1611,-0.16,-0.1625,-0.1658,-0.1661,-0.1763,-0.178,-0.1928,-0.1936,-0.2042,-0.2113,-0.2163,-0.2316,-0.2382,-0.2393,-0.2346,-0.2468,-0.2352,-0.235,-0.2352,-0.2352,-0.2339,-0.2338,-0.2336,-0.2335,0,-0.1566,-0.1614,-0.164,-0.1707,-0.1724,-0.1739,-0.1801,-0.1813,-0.1905,-0.1957,-0.1979,-0.2102,-0.2209,-0.2312,-0.2485,-0.2475,-0.2552,-0.2509,-0.2582,-0.2585,-0.2387,-0.2381,-0.2368,-0.2361,-0.2356,-0.2352,-0.2348,0,-0.1634,-0.1651,-0.1719,-0.1727,-0.175,-0.1803,-0.1838,-0.1884,-0.196,-0.1996,-0.2088,-0.215,-0.2335,-0.2411,-0.2507,-0.2538,-0.2652,-0.258,-0.2575,-0.2751,-0.2743,-0.2728,-0.2717,-0.2832,-0.2833,-0.2833,-0.2834,0,-0.1676,-0.172,-0.1738,-0.1754,-0.1815,-0.1836,-0.187,-0.1944,-0.198,-0.2061,-0.2095,-0.2232,-0.2304,-0.2431,-0.2528,-0.2564,-0.2686,-0.2753,-0.26,-0.2583,-0.2727,-0.2715,-0.2834,-0.2835,-0.2835,-0.2835,-0.2835,0,-0.1725,-0.1746,-0.1769,-0.1814,-0.1825,-0.1851,-0.1911,-0.1949,-0.2032,-0.2068,-0.215,-0.2205,-0.2344,-0.2377,-0.2556,-0.254,-0.2577,-0.265,-0.2651,-0.246,-0.2433,-0.2488,-0.2601,-0.26,-0.2599,-0.2598,-0.2597,0,-0.1747,-0.177,-0.1796,-0.1824,-0.1838,-0.1886,-0.1924,-0.1973,-0.202,-0.2073,-0.2173,-0.2234,-0.2281,-0.2327,-0.2434,-0.2538,-0.2584,-0.2559,-0.2596,-0.2593,-0.2412,-0.2481,-0.2649,-0.2583,-0.2585,-0.2586,-0.2587,0,-0.1754,-0.18,-0.1804,-0.1818,-0.1866,-0.1882,-0.1929,-0.1973,-0.2005,-0.2071,-0.2116,-0.2235,-0.2267,-0.23,-0.2364,-0.2465,-0.2553,-0.2471,-0.2474,-0.2416,-0.2659,-0.2481,-0.2472,-0.2633,-0.2637,-0.2639,-0.2577,0,-0.1774,-0.1796,-0.1807,-0.1835,-0.1861,-0.1883,-0.1923,-0.1957,-0.1988,-0.2013,-0.2098,-0.2159,-0.221,-0.2275,-0.2282,-0.2408,-0.2362,-0.2401,-0.2362,-0.2452,-0.2406,-0.2414,-0.2297,-0.2295,-0.2294,-0.2293,0,0,-0.1772,-0.1783,-0.1811,-0.1826,-0.1843,-0.1881,-0.1895,-0.1926,-0.196,-0.1979,-0.1984,-0.2083,-0.2117,-0.2209,-0.2252,-0.2267,-0.2268,-0.2247,-0.2406,-0.2418,-0.243,-0.2392,-0.2401,-0.2291,-0.229,-0.229,-0.229,0,-0.1763,-0.1789,-0.1801,-0.1822,-0.1856,-0.187,-0.1885,-0.1913,-0.1937,-0.1966,-0.1988,-0.2051,-0.2078,-0.213,-0.2155,-0.2241,-0.2221,-0.227,-0.2307,-0.2393,-0.2407,-0.242,-0.2386,-0.2395,-0.2287,-0.2287,-0.2287,0,-0.1756,-0.1771,-0.1782,-0.1812,-0.1831,-0.185,-0.1857,-0.1888,-0.191,-0.1901,-0.1937,-0.1967,-0.1993,-0.2051,-0.2078,-0.206,-0.2171,-0.2142,-0.215,-0.212,-0.2206,-0.2223,-0.2238,-0.2041,-0.2041,-0.204,0,0,-0.175,-0.1767,-0.179,-0.1811,-0.1824,-0.1846,-0.1863,-0.1877,-0.1893,-0.1904,-0.1914,-0.194,-0.1975,-0.1995,-0.2011,-0.2058,-0.2046,-0.2112,-0.2124,-0.2133,-0.211,-0.2197,-0.2214,-0.2037,-0.2037,-0.2037,0,0,-0.1744,-0.1766,-0.1778,-0.1799,-0.1824,-0.1838,-0.1859,-0.1872,-0.1892,-0.1899,-0.1896,-0.1898,-0.1949,-0.1948,-0.1907,-0.2025,-0.1978,-0.1986,-0.2024,-0.2038,-0.205,-0.2015,-0.1889,0,0,0,0,0,-0.1748,-0.1762,-0.1772,-0.1778,-0.1808,-0.1832,-0.1837,-0.1858,-0.1866,-0.1883,-0.1893,-0.1885,-0.1939,-0.1901,-0.1902,-0.1967,-0.1997,-0.2004,-0.2011,-0.2071,-0.2086,-0.2099,0,0,0,0,0,0,-0.175,-0.1756,-0.1772,-0.1785,-0.1792,-0.1831,-0.1828,-0.1834,-0.1865,-0.1869,-0.1883,-0.1884,-0.1877,-0.19,-0.1901,-0.1964,-0.1889,-0.2,-0.2006,-0.2011,-0.2076,-0.2088,-0.2099,0,0,0,0,0,-0.1752,-0.1757,-0.1801,-0.1785,-0.1791,-0.1822,-0.1829,-0.1833,-0.1861,-0.186,-0.1864,-0.188,-0.1876,-0.1878,-0.1901,-0.1965,-0.1888,-0.1889,-0.2004,-0.2009,-0.2013,-0.2082,0,0,0,0,0,0,-0.1754,-0.1756,-0.1803,-0.1806,-0.1789,-0.1821,-0.1826,-0.1833,-0.1851,-0.1855,-0.1854,-0.1856,-0.1875,-0.1877,-0.1878,-0.1967,-0.1888,-0.1888,-0.1888,-0.2007,-0.2011,-0.2014,0,0,0,0,0,0,-0.1754,-0.1759,-0.1805,-0.1809,-0.1812,-0.182,-0.1825,-0.1827,-0.185,-0.1843,-0.1846,-0.1855,-0.1873,-0.1876,-0.1877,-0.188,-0.1887,-0.1888,-0.1888,-0.1888,-0.201,-0.2013,0,0,0,0,0,0,-0.1757,-0.176,-0.1808,-0.181,-0.1813,-0.1846,-0.1821,-0.1849,-0.1862,-0.1841,-0.1863,-0.1864,-0.1872,-0.1873,-0.1877,-0.1878,-0.1879,-0.1887,-0.1888,-0.1888,-0.1888,0,0,0,0,0,0,0,-0.1758,-0.1728,-0.1789,-0.1812,-0.1814,-0.1835,-0.1835,-0.1836,-0.1862,-0.1863,-0.1863,-0.1864,-0.1885,-0.1886,-0.1886,-0.1877,0,0,-0.1887,-0.1887,0,0,0,0,0,0,0,0,-0.1727,-0.1727,-0.1789,-0.179,-0.1791,-0.1835,-0.1835,-0.1836,-0.1862,-0.1863,-0.1863,-0.1863,-0.1886,-0.1886,-0.1886,0,0,0,0,0,0,0,0,0,0,0,0,0,0,0,-0.1789,-0.179,0,-0.1835,-0.1835,-0.1835,-0.1862,-0.1863,-0.1863,-0.1863,-0.1886,-0.1886,-0.1886,0,0,0,0,0,0,0,0,0,0,0,0,0,0,0,0,0,0,0,0,0,0,0,0,0,0,0,0,0,0,0,0,0,0,0,0,0,0,0,0,0,0,0,0,0,0,0,0,0,0,0,0,0,0,0,0,0,0,0,0,0,0,0,0,0,0,0,0,0]}],[{"header":{"parameterUnit":"kt","parameterCategory":2,"dx":1,"dy":1,"la1":30.253999710083008,"la2":30.299108505249023,"lo1":-89.0895004272461,"lo2":-89.04439544677734,"nx":28,"ny":28,"refTime":"2022-10-17T21:00:00:Z","depth":"4","parameterNumber":3,"parameterNumberName":"V-component_of_CURRENTS"},"data":[0.0281,0.0426,0.0492,0.0755,0.0851,0.0911,0.0786,0.0515,0.0372,-0.002,-0.0028,-0.0307,-0.0268,-0.0392,-0.0257,-0.0252,-0.0171,-0.0262,-0.0259,-0.0166,-0.0168,-0.017,-0.0108,0,0,0,0,0,0.0153,0.0297,0.0413,0.0531,0.0583,0.0618,0.0433,0.0244,-0.0123,-0.0222,-0.0368,-0.0389,-0.0371,-0.0384,-0.0291,-0.0298,-0.0188,-0.0177,-0.0089,-0.0168,-0.017,-0.0109,0,0,0,0,0,0,0.004,0.0095,0.0198,0.0286,0.0341,0.0376,0.0233,0.0092,-0.0052,-0.0395,-0.045,-0.05,-0.0614,-0.0509,-0.0423,-0.0338,-0.031,-0.0252,-0.0249,-0.025,-0.0215,-0.0259,-0.0283,0,0,0,0,0,-0.0019,-0.0024,-0.0025,0.0106,0.0111,0.0077,-0.0002,-0.0099,-0.0298,-0.045,-0.0584,-0.0582,-0.0567,-0.0501,-0.0406,-0.0314,-0.0247,-0.0209,-0.0209,-0.0149,-0.0179,-0.0149,-0.0147,-0.0177,-0.0178,-0.0178,-0.0178,0,-0.0045,-0.006,-0.0095,-0.0051,-0.0068,-0.0128,-0.0147,-0.0301,-0.0361,-0.0527,-0.0545,-0.0579,-0.0575,-0.0488,-0.0398,-0.0298,-0.0235,-0.0215,-0.015,-0.0182,-0.0153,-0.0149,-0.0146,-0.0179,-0.0179,-0.0179,-0.0179,0,-0.0049,-0.0077,-0.0108,-0.0171,-0.0187,-0.0217,-0.0312,-0.0341,-0.0433,-0.0495,-0.0506,-0.0538,-0.0523,-0.0454,-0.0377,-0.0302,-0.0232,-0.0186,-0.0241,-0.0211,-0.0151,-0.0147,-0.0182,-0.0182,-0.0181,-0.0181,-0.018,0,-0.0062,-0.009,-0.0133,-0.0152,-0.0196,-0.0255,-0.0316,-0.035,-0.0419,-0.0463,-0.0453,-0.0477,-0.0411,-0.0382,-0.0312,-0.0245,-0.0257,-0.0154,-0.0127,-0.0123,-0.012,-0.0042,-0.0029,-0.0148,-0.0147,-0.0147,-0.0146,0,-0.0049,-0.0099,-0.0134,-0.0152,-0.0215,-0.0248,-0.029,-0.0337,-0.0373,-0.0399,-0.0419,-0.0406,-0.0391,-0.0342,-0.026,-0.0249,-0.0223,-0.0179,-0.0116,-0.0116,-0.0033,-0.0021,-0.0146,-0.0145,-0.0145,-0.0145,-0.0145,0,-0.0052,-0.0074,-0.0116,-0.0176,-0.0187,-0.0222,-0.0285,-0.0319,-0.0347,-0.035,-0.0347,-0.0309,-0.0306,-0.0239,-0.021,-0.0208,-0.016,-0.0121,-0.0121,-0.0013,0.0048,0.0004,-0.012,-0.012,-0.0119,-0.0119,-0.0118,0,-0.0037,-0.0071,-0.0085,-0.0133,-0.015,-0.0169,-0.0211,-0.023,-0.024,-0.0263,-0.0217,-0.0202,-0.0154,-0.0145,-0.0137,-0.0076,-0.0089,-0.0065,0.0022,0.0024,0.0046,-0.0053,-0.0032,-0.011,-0.0111,-0.0112,-0.0112,0,-0.0016,-0.0042,-0.0045,-0.0064,-0.0085,-0.0096,-0.0135,-0.0155,-0.018,-0.0169,-0.0193,-0.0137,-0.011,-0.0063,-0.0017,-0.001,-0.0077,0.004,0.0046,-0.001,-0.0079,-0.0048,-0.0051,-0.003,-0.003,-0.003,-0.0106,0,-0.0012,-0.0024,-0.003,-0.0045,-0.0057,-0.0068,-0.0071,-0.0087,-0.0084,-0.0075,-0.0065,0.0014,0.0065,0.0061,0.0119,0.0092,0.0099,0.0169,0.0231,0.0156,0.0131,0.0126,0.0241,0.0245,0.0248,0.025,0,0,0.0012,0.0005,0.0019,0.0007,-0.0002,0.0017,-0.0002,0.0,0.0033,0.0036,0.0057,0.0137,0.0211,0.023,0.0197,0.0245,0.0248,0.0243,0.0195,0.0188,0.0182,0.0154,0.0145,0.0255,0.0256,0.0257,0.0258,0,0.0023,0.003,0.0022,0.0021,0.0028,0.0035,0.0029,0.0045,0.005,0.0072,0.0132,0.0167,0.0251,0.029,0.0328,0.0282,0.033,0.0278,0.0192,0.0218,0.0207,0.0198,0.0167,0.0157,0.0265,0.0265,0.0265,0,0.0041,0.0049,0.0048,0.0056,0.0069,0.0058,0.0093,0.0096,0.0083,0.0195,0.0203,0.026,0.0356,0.0374,0.0396,0.0429,0.0408,0.0433,0.0421,0.0439,0.0472,0.0459,0.0447,0.0596,0.0596,0.0596,0,0,0.0049,0.0047,0.0064,0.0061,0.0064,0.0088,0.0094,0.0108,0.0153,0.0173,0.023,0.0301,0.0356,0.0391,0.0457,0.0488,0.0531,0.0466,0.045,0.0437,0.0446,0.0476,0.0464,0.0598,0.0598,0.0598,0,0,0.0058,0.0074,0.0081,0.0081,0.0088,0.0118,0.0119,0.0132,0.0182,0.0195,0.0284,0.0311,0.0348,0.0422,0.0427,0.0448,0.0522,0.0524,0.0376,0.0358,0.0343,0.0334,0.0492,0,0,0,0,0,0.0076,0.0069,0.0076,0.0078,0.0105,0.0111,0.0116,0.0142,0.0156,0.0151,0.0225,0.0276,0.0432,0.044,0.0465,0.0413,0.0614,0.0611,0.0608,0.0427,0.0407,0.0391,0,0,0,0,0,0,0.0077,0.008,0.0076,0.0104,0.011,0.0112,0.0144,0.0151,0.0157,0.016,0.0259,0.0279,0.0345,0.0433,0.0454,0.0402,0.0485,0.0613,0.061,0.0608,0.042,0.0404,0.039,0,0,0,0,0,0.0078,0.008,0.0113,0.0105,0.011,0.0141,0.0144,0.015,0.0157,0.0253,0.0271,0.0173,0.0343,0.0367,0.0446,0.0389,0.047,0.0478,0.0611,0.0609,0.0607,0.0413,0,0,0,0,0,0,0.0079,0.0092,0.0115,0.0118,0.0107,0.0141,0.0147,0.015,0.0252,0.0266,0.0174,0.0177,0.0342,0.0361,0.0379,0.0377,0.0459,0.0467,0.0472,0.061,0.0608,0.0607,0,0,0,0,0,0,0.0091,0.0095,0.0117,0.0118,0.0121,0.0141,0.0146,0.0225,0.0256,0.017,0.0173,0.0175,0.0345,0.0356,0.037,0.0489,0.045,0.0458,0.0463,0.0466,0.0608,0.0607,0,0,0,0,0,0,0.0093,0.0096,0.0117,0.012,0.0123,0.016,0.0216,0.0262,0.0191,0.0168,0.0192,0.0192,0.0342,0.0355,0.0364,0.0476,0.0486,0.045,0.0455,0.0459,0.0461,0,0,0,0,0,0,0,0.0095,0.0066,0.0095,0.0122,0.0125,0.0145,0.0146,0.0147,0.0191,0.0191,0.0192,0.0192,0.0408,0.0416,0.0424,0.0466,0,0,0.045,0.0453,0,0,0,0,0,0,0,0,0.0065,0.0066,0.0095,0.0095,0.0096,0.0145,0.0146,0.0147,0.0191,0.0191,0.0192,0.0192,0.041,0.0416,0.0423,0,0,0,0,0,0,0,0,0,0,0,0,0,0,0,0.0095,0.0095,0,0.0145,0.0146,0.0147,0.0191,0.0191,0.0191,0.0192,0.0412,0.0417,0.0423,0,0,0,0,0,0,0,0,0,0,0,0,0,0,0,0,0,0,0,0,0,0,0,0,0,0,0,0,0,0,0,0,0,0,0,0,0,0,0,0,0,0,0,0,0,0,0,0,0,0,0,0,0,0,0,0,0,0,0,0,0,0,0,0,0,0,0,0,0]}]]]